User: anonymous   Login
Location: Fiddletown
(38.4917°N, 120.6633°W)
Time: 09:24:22
(UTC-07:00)
Language:

Envisat - Orbit

View from above orbital plane
View from above orbital plane
View from above satellite
View from above satellite

Ground track
Ground track

The orbit data is extracted from the following two-line orbital elements,

1 27386U 02009A   16151.17024205  .00000008  00000-0  16477-4 0  9999
2 27386  98.2851 205.2337 0001266  79.0412 281.0931 14.37867275746035
Epoch (UTC): 30 May 2016 04:05:08
Eccentricity: 0.0001266
inclination: 98.2851°
perigee height: 764 km
apogee height: 766 km
right ascension of ascending node: 205.2337°
argument of perigee: 79.0412°
revolutions per day: 14.37867275
mean anomaly at epoch: 281.0931°
orbit number at epoch: 74603

The dashed part of the orbit path shows where the satellite is in the earth's shadow,  

DLR